TimeAKST,TemperatureF,Dew PointF,Humidity,Sea Level PressureIn,VisibilityMPH,Wind Direction,Wind SpeedMPH,Gust SpeedMPH,PrecipitationIn,Events,Conditions,WindDirDegrees,DateUTC
12:53 AM,30.0,28.0,92,30.10,10.0,East,5.8,-,N/A,,Clear,90,2012-12-08 09:53:00
1:53 AM,30.0,27.0,88,30.11,10.0,East,5.8,-,N/A,,Partly Cloudy,80,2012-12-08 10:53:00
3:53 AM,30.9,27.0,85,30.11,10.0,East,8.1,-,N/A,,Partly Cloudy,90,2012-12-08 12:53:00
4:53 AM,30.9,28.0,89,30.10,10.0,East,4.6,-,N/A,,Overcast,100,2012-12-08 13:53:00
5:53 AM,34.0,27.0,75,30.10,10.0,ESE,8.1,-,N/A,,Mostly Cloudy,120,2012-12-08 14:53:00
6:53 AM,33.1,27.0,78,30.10,10.0,East,8.1,-,N/A,,Scattered Clouds,100,2012-12-08 15:53:00
7:53 AM,34.0,27.0,75,30.09,10.0,ESE,10.4,-,N/A,,Clear,110,2012-12-08 16:53:00
8:53 AM,35.1,27.0,72,30.09,10.0,ESE,11.5,-,N/A,,Mostly Cloudy,110,2012-12-08 17:53:00
9:53 AM,35.1,26.1,70,30.10,10.0,East,9.2,-,N/A,,Mostly Cloudy,100,2012-12-08 18:53:00
10:53 AM,36.0,27.0,70,30.09,10.0,East,15.0,-,N/A,,Mostly Cloudy,100,2012-12-08 19:53:00
11:53 AM,36.0,26.1,67,30.07,10.0,East,12.7,-,N/A,,Overcast,100,2012-12-08 20:53:00
12:53 PM,37.0,26.1,65,30.08,10.0,ESE,13.8,20.7,N/A,,Overcast,110,2012-12-08 21:53:00
1:53 PM,37.0,26.1,65,30.06,10.0,ESE,15.0,19.6,N/A,,Overcast,120,2012-12-08 22:53:00
2:53 PM,36.0,27.0,70,30.02,10.0,East,15.0,-,N/A,,Overcast,100,2012-12-08 23:53:00
3:53 PM,36.0,27.0,70,29.98,10.0,ESE,16.1,23.0,N/A,,Overcast,120,2012-12-09 00:53:00
4:53 PM,36.0,27.0,70,29.95,6.0,ESE,19.6,26.5,0.00,Snow,Light Snow,110,2012-12-09 01:53:00
5:53 PM,37.0,27.0,67,29.91,10.0,ESE,18.4,28.8,0.00,Snow,Light Snow,110,2012-12-09 02:53:00
6:49 PM,35.6,28.4,75,29.87,4.0,ESE,17.3,24.2,0.00,Snow,Light Snow,120,2012-12-09 03:49:00
6:53 PM,35.1,28.9,78,29.86,4.0,ESE,13.8,-,0.00,Snow,Light Snow,110,2012-12-09 03:53:00
7:14 PM,35.6,30.2,81,29.83,2.0,ESE,18.4,-,0.00,Snow,Light Snow,120,2012-12-09 04:14:00
7:29 PM,33.8,30.2,87,29.82,1.8,ESE,17.3,-,0.00,Snow,Light Snow,120,2012-12-09 04:29:00
7:50 PM,33.8,30.2,87,29.79,2.5,ESE,19.6,28.8,0.00,Snow,Light Snow,110,2012-12-09 04:50:00
7:53 PM,35.1,30.9,85,29.79,2.5,ESE,19.6,28.8,0.00,Snow,Light Snow,110,2012-12-09 04:53:00
8:09 PM,35.6,30.2,81,29.79,3.0,ESE,19.6,26.5,0.00,Snow,Light Snow,120,2012-12-09 05:09:00
8:16 PM,33.8,30.2,87,29.78,2.0,ESE,21.9,27.6,0.00,Snow,Light Snow,110,2012-12-09 05:16:00
8:48 PM,35.6,32.0,87,29.79,1.8,ESE,15.0,27.6,0.01,Snow,Light Snow,120,2012-12-09 05:48:00
8:53 PM,35.1,32.0,89,29.78,1.8,ESE,17.3,27.6,0.02,Snow,Light Snow,110,2012-12-09 05:53:00
9:01 PM,35.6,32.0,87,29.76,2.5,East,24.2,33.4,0.01,Snow,Light Snow,100,2012-12-09 06:01:00
9:20 PM,33.8,32.0,93,29.73,1.8,ESE,26.5,32.2,0.02,Snow,Light Snow,110,2012-12-09 06:20:00
9:29 PM,35.6,33.8,93,29.72,3.0,ESE,25.3,35.7,0.03,Snow,Light Snow,110,2012-12-09 06:29:00
9:38 PM,35.6,33.8,93,29.71,7.0,ESE,25.3,35.7,0.03,Rain,Light Rain,110,2012-12-09 06:38:00
9:53 PM,37.0,30.9,79,29.70,10.0,ESE,25.3,36.8,0.03,,Overcast,110,2012-12-09 06:53:00
10:53 PM,37.9,32.0,79,29.67,8.0,ESE,26.5,35.7,0.01,Rain,Light Rain,110,2012-12-09 07:53:00
11:53 PM,37.9,33.1,83,29.68,10.0,ESE,20.7,27.6,0.03,Rain,Light Rain,120,2012-12-09 08:53:00